Date,TemperatureHighF,TemperatureAvgF,TemperatureLowF,DewpointHighF,DewpointAvgF,DewpointLowF,HumidityHigh,HumidityAvg,HumidityLow,PressureMaxIn,PressureMinIn,WindSpeedMaxMPH,WindSpeedAvgMPH,GustSpeedMaxMPH,PrecipitationSumIn
2013-12-1,41.1,27.6,14.8,28.6,21.4,11.6,92,78,59,30.84,30.55,17,3,17,0.05
2013-12-2,46.5,36.0,30.2,29.7,27.0,24.8,85,71,49,30.55,29.96,21,3,21,0.05
2013-12-3,43.3,33.5,25.9,32.6,27.6,23.6,95,80,52,29.97,29.60,25,2,25,0.02
2013-12-4,29.8,15.4,-3.1,28.2,12.4,-7.0,94,88,80,30.51,29.57,0,0,0,0.00
2013-12-5,9.5,0.1,-6.4,2.8,-4.4,-9.8,87,81,69,30.73,30.51,1,0,1,0.00
2013-12-6,11.0,1.9,-6.7,7.0,-2.0,-11.1,88,83,77,30.85,30.72,1,0,1,0.00
2013-12-7,16.5,11.8,4.5,13.2,8.7,1.4,90,87,82,30.82,30.19,1,0,1,0.00
2013-12-8,25.9,15.5,5.6,13.6,9.3,-0.4,91,77,51,30.51,30.13,13,1,13,0.01
2013-12-9,19.7,5.4,-6.8,5.1,-1.3,-10.7,88,75,49,31.15,30.51,13,1,14,0.00
2013-12-10,20.5,6.5,-10.0,11.0,-0.5,-14.9,86,73,54,31.21,30.95,12,1,12,0.15
2013-12-11,23.7,9.3,-0.5,13.9,4.7,-3.7,89,82,60,31.23,31.00,6,0,6,0.01
2013-12-12,21.3,6.4,-2.5,12.9,2.3,-5.9,89,83,67,31.31,30.95,3,0,3,0.00
2013-12-13,21.2,9.4,-2.5,14.6,5.2,-6.8,92,83,71,30.95,30.74,4,0,4,0.00
2013-12-14,29.8,15.4,3.6,19.9,10.9,-0.1,91,83,64,31.10,30.92,7,0,7,0.00
2013-12-15,34.6,22.5,14.6,24.9,17.3,11.4,91,81,58,31.04,30.83,6,0,6,0.01
2013-12-16,35.0,18.6,7.7,24.8,14.3,4.9,92,84,61,31.04,30.88,7,0,7,0.01
2013-12-17,32.1,16.8,8.2,22.6,13.0,5.4,93,85,64,31.14,30.90,5,0,5,0.00
2013-12-18,30.9,17.8,7.9,22.8,13.9,5.1,93,85,67,30.89,30.36,5,0,5,0.01
2013-12-19,37.7,26.0,15.9,30.3,22.1,12.7,96,85,73,30.38,30.03,8,0,8,0.00
2013-12-20,41.7,29.6,19.9,32.0,25.2,15.5,95,84,60,30.09,29.95,13,1,13,0.03
2013-12-21,31.1,22.0,11.2,22.8,17.2,8.4,89,82,70,30.38,29.99,13,1,13,0.01
2013-12-22,34.7,19.6,6.0,20.9,12.6,3.0,90,75,49,30.72,30.38,18,1,18,0.01
2013-12-23,37.5,28.2,18.8,25.4,21.6,15.6,90,77,57,30.82,30.71,14,2,17,0.01
2013-12-24,43.2,27.6,8.5,29.5,20.6,5.7,89,76,47,30.86,30.48,18,1,18,0.03
2013-12-25,25.2,9.2,-1.4,13.2,4.0,-5.0,89,80,55,31.23,30.86,3,0,3,0.01
2013-12-26,25.5,9.1,-4.0,14.7,3.7,-8.6,88,79,58,31.28,31.10,5,0,5,0.00
2013-12-27,29.0,12.5,1.9,17.5,7.2,-2.6,92,80,57,31.26,30.93,5,0,5,0.01
2013-12-28,25.4,15.0,4.4,18.2,10.8,1.2,90,83,70,30.93,30.60,4,0,4,0.00
2013-12-29,34.0,21.0,13.7,23.2,16.1,9.2,93,82,52,30.73,30.58,6,0,9,0.01
2013-12-30,40.2,24.2,14.3,23.3,16.0,10.6,87,72,43,30.83,30.65,8,0,9,0.00
2013-12-31,37.0,26.2,15.0,28.6,20.2,11.2,89,79,61,30.75,30.48,12,1,12,0.01